Погода в Деменёве

Россия / Пермский край     56°43′58″N   56°11′00″E
темп.,
°C
ветер,
м/с
пор.,
м/с
влажн.,
%
обл.,
%
осадки,
мм/ч
давл.,
гПа
погр.,
м
14 мая, пт
пт1423:00+18зюз11520 0.0 102611
02:00+17зюз11550 0.0 102511
05:00+15ю22615 0.0 102611
08:00+19ю23550 0.0 1026145
11:00+24ююз35435 0.0 1025648
14:00+26ююз45355 0.0 10241894
17:00+26ююз563510 0.0 10231782
20:00+22ююз37580 0.0 1022142
15 мая, сб
сб1523:00+18ююз36655 0.0 102292
02:00+16ююз3768100 0.0 1022101
05:00+15ююз38710 0.0 1022145
08:00+18ююз4106492 0.0 1022298
11:00+23юз5851100 0.0 1021667
14:00+26юз684498 0.0 10211296
17:00+26юз584298 0.0 10201204
20:00+22юз41157100 0.0 1019344
16 мая, вс
вс1623:00+18юз31365100 0.0 1019249
02:00+17юз366716 0.0 102095
05:00+15ююз34695 0.0 102063
08:00+19юз375919 0.0 1021206
11:00+25юз574217 0.0 1020581
14:00+28юз68336 0.0 10201993
17:00+28юз58345 0.0 10192474
20:00+23ююз39535 0.0 1018205
17 мая, пн
пн1723:00+19ююз376147 0.0 1018102
02:00+17ююз356089 0.0 101881
05:00+16ююз3116350 0.0 1018199
08:00+19ююз3963100 0.0 1018254
11:00+24зюз5845100 0.0 1018751
14:00+27зюз593876 0.0 10181638
17:00+28зюз5103710 0.0 10172866
20:00+23з23555 0.0 101742
18 мая, вт
вт1823:00+18зсз236474 0.1 101728
02:00+16ссв1172100 0.1 101811
05:00+15с1181100 1.3 101911
08:00+19зюз127184 0.1 1019109
11:00+24зсз235164 0.1 1018782
14:00+27зсз364199 0.0 10181698
17:00+27ссз353966 0.0 10161760
20:00+18ююз247534 0.8 1018115